Regional Weather Roundup
Issued by NWS Newport/Morehead, NC

Current Version | Previous Version | Text Only | Print | Product List | Glossary On
Versions: 1 2 3 4 5 6 7 8 9 10 11 12 13 14 15 16 17 18 19 20 21 22 23 24 25 26 27 28 29 30 31 32 33 34 35 36 37 38 39 40 41 42 43 44 45 46 47 48 49 50
324
ASUS42 KMHX 240425
RWRMHX
WEATHER ROUNDUP FOR EASTERN NORTH CAROLINA
NATIONAL WEATHER SERVICE NEWPORT/MOREHEAD CITY NC
1200 AM EDT SUN JUL 24 2016

NOTE: "FAIR" INDICATES FEW OR NO CLOUDS BELOW 12,000 FEET
WITH NO SIGNIFICANT WEATHER AND/OR OBSTRUCTIONS TO VISIBILITY

NCZ015>017-031-032-045>047-102-103-240500-
NORTH COAST

CITY           SKY/WX    TMP DP  RH WIND       PRES   REMARKS
EDENTON        CLEAR     82  73  74 SW5       29.99F
ELIZABETH CITY CLEAR     82  74  76 SW13      29.97F
KITTY HAWK     CLEAR     82  74  78 SW5       29.98S
MANTEO           N/A     81  77  89 SW13      30.00S

$$

NCZ045>047-081-094-103-104-240500-
CENTRAL COAST

CITY           SKY/WX    TMP DP  RH WIND       PRES   REMARKS
FRISCO         CLEAR     82  75  79 SW8       30.01S

$$

NCZ095-097-098-100-101-240500-
SOUTHERN COAST

CITY           SKY/WX    TMP DP  RH WIND       PRES   REMARKS
BEAUFORT       CLEAR     82  76  81 SW10      30.01S
CEDAR ISLAND   NOT AVBL
JACKSONVILLE   CLEAR     77  73  87 W5        30.01R
PINEY ISLAND   NOT AVBL
WILMINGTON     CLEAR     77  75  93 S3        30.01R


$$

NCZ011>013-027>030-043-044-078>080-089-090>093-098-240500-
COASTAL PLAIN

CITY           SKY/WX    TMP DP  RH WIND       PRES   REMARKS
AHOSKIE        CLEAR     78  75  91 S3        29.98S
CLINTON        CLEAR     74  73  94 CALM      30.01S
ELIZABETHTOWN  CLEAR     75  73  93 S6        30.00F
GOLDSBORO      CLEAR     78  77  96 S5        29.98S
GREENVILLE     CLEAR     81  75  83 SW5       30.01S
HAVELOCK       CLEAR     78  74  87 S6        30.02R
KENANSVILLE    NOT AVBL
KINSTON        CLEAR     78  72  82 S5        30.01R
NEW BERN       CLEAR     78  74  87 SW5       30.02R
RICHLANDS      CLEAR     75  73  93 S5        30.01S
ROCKY MOUNT    CLEAR     79  74  84 S5        29.98F
WASHINGTON     CLEAR     78  73  85 SW5       30.00R
WHITEVILLE     PTCLDY    74  73  94 CALM      30.01S

$$

AMZ130-135-150-152-154-156-158-170-250-252-270-ANZ085-086-088-633-658-670-240500-
MARINE OBSERVATIONS

STATION/POSITION TIME  TEMP    WIND        PRES    WAVE   SWELL
                       AIR SEA DIR/SP/G            HT/PER HT/PER
                 (UTC) (F)     (DEG/KT/KT) (MB)    (FT/S) (FT/S)
CHESAPEAKE LIGHT NOT AVBL
64 E VA BEACH    0350   82 80  220/ 16/ 19 1014.3    3/ 5   2/ 9
DUCK             0400   83 61  220/ 14/ 18 1014.5
2 E DUCK         0311      74                N/A     2/ 8
OREGON INLET     0400   84 85  210/ 16/ 18 1015.6
13E OREGON INLT  0400      83                N/A     3/ 9   2/ 9
HATTERAS CG      0400   82 83  210/  8/ 10 1015.9
DIAMOND BUOY     0350   84 86  210/ 14/ 16 1016.2    3/ 8   2/ 8
CAPE LOOKOUT     0400   83     210/  9/ 12 1016.1
BEAUFORT LAB     0400   83 83  210/  8/ 12 1015.6
30 SE NEW RVR IN 0408   84 85  210/ 10/ 14 1016.2
30 SE NEW RVR IN 0325      85                N/A     3/ 9
27 SE WRIGHTSVLE 0408   84 85  210/ 12/ 14 1016.6
5 SE WRIGHTSVLE  0308   83 84  220/ 10/ 12 1016.8
225 S CAPE HAT   0350   82 85  110/  2/  4 1017.8    3/ 8   2/ 8
41 SE CHARLESTON 0350   85 86  180/ 12/ 14 1016.0    2/ 8   2/ 8

$$




USA.gov is the U.S. government's official web portal to all federal, state and local government web resources and services.